FW8060 Weather Reports


Display with metric or nautical units.
time (UTC)temp
F
wind
direction
speed
MPH
gust
MPH
rain 1hr
in
rain 24hr
in
rain mn
in
humidity
%
barometer
mb
20260904225344 60 211 2.0 4.0 0.00 0.05 0.00 87 1018.1
20260904224348 60 219 1.0 4.0 0.00 0.05 0.00 88 1018.0
20260904223345 61 182 2.0 5.0 0.00 0.05 0.00 88 1018.0
20260904222339 62 213 2.0 5.0 0.00 0.05 0.00 88 1017.9
20260904221339 62 232 1.0 4.0 0.00 0.05 0.00 88 1017.7
20260904220340 62 161 2.0 5.0 0.00 0.05 0.00 87 1017.7
20260904215344 63 266 2.0 6.0 0.00 0.05 0.05 86 1017.7
20260904214345 63 269 2.0 7.0 0.00 0.05 0.05 86 1017.6
20260904213348 63 233 2.0 6.0 0.00 0.05 0.05 87 1017.6
20260904212336 64 246 2.0 6.0 0.00 0.05 0.05 87 1017.6
20260904211338 64 264 2.0 6.0 0.00 0.05 0.05 87 1017.5
20260904210334 65 274 2.0 7.0 0.00 0.05 0.05 87 1017.5
20260904205330 65 248 2.0 5.0 0.00 0.05 0.05 88 1017.3
20260904204330 65 265 2.0 7.0 0.00 0.05 0.05 88 1017.3
20260904203334 65 270 3.0 9.0 0.00 0.05 0.05 88 1017.3
20260904202336 65 221 3.0 9.0 0.00 0.05 0.05 89 1017.3
20260904201332 65 254 4.0 11.0 0.00 0.05 0.05 89 1017.2
20260904200349 66 261 3.0 8.0 0.00 0.05 0.05 89 1016.9
20260904200328 66 202 3.0 8.0 0.00 0.05 0.05 89 1017.0
20260904194327 66 238 3.0 9.0 0.00 0.05 0.05 89 1016.6
20260904193330 66 243 3.0 9.0 0.00 0.05 0.05 88 1016.4
20260904192328 66 273 4.0 8.0 0.00 0.05 0.05 88 1016.2
20260904191336 67 271 4.0 10.0 0.00 0.05 0.05 87 1016.2
20260904190814 67 282 4.0 11.0 0.00 0.05 0.05 86 1016.2
20260904185327 67 285 4.0 10.0 0.00 0.05 0.05 86 1016.0
20260904184828 67 263 4.0 10.0 0.00 0.05 0.05 86 1015.9
20260904183324 67 290 5.0 13.0 0.00 0.05 0.05 85 1015.9
20260904182322 67 265 6.0 14.0 0.00 0.05 0.05 84 1015.6
20260904181321 68 238 5.0 13.0 0.00 0.05 0.05 84 1015.7
20260904180321 68 227 5.0 14.0 0.00 0.05 0.05 83 1015.5
20260904175320 68 253 7.0 15.0 0.00 0.05 0.05 83 1015.4
20260904174319 69 248 6.0 13.0 0.00 0.05 0.05 82 1015.3
20260904173319 69 281 6.0 14.0 0.00 0.05 0.05 82 1015.3
20260904172322 69 257 5.0 11.0 0.00 0.05 0.05 80 1015.3
20260904171322 69 249 6.0 13.0 0.00 0.05 0.05 80 1015.2
20260904170320 70 236 6.0 14.0 0.00 0.05 0.05 79 1014.9
20260904165318 70 252 6.0 17.0 0.00 0.05 0.05 78 1015.2
20260904165252 70 303 6.0 13.0 0.00 0.05 0.05 78 1014.9
20260904163333 70 286 6.0 13.0 0.00 0.05 0.05 78 1014.7
20260904162328 70 181 6.0 13.0 0.00 0.05 0.05 79 1014.6
20260904161330 71 217 7.0 14.0 0.00 0.05 0.05 78 1014.6
20260904160328 71 244 7.0 16.0 0.00 0.05 0.05 79 1014.6
20260904155330 71 238 5.0 12.0 0.00 0.05 0.05 79 1014.5
20260904154326 71 284 5.0 13.0 0.00 0.05 0.05 79 1014.6
20260904153328 71 304 7.0 14.0 0.00 0.05 0.05 79 1014.6
20260904152326 71 267 6.0 13.0 0.00 0.05 0.05 78 1014.8
20260904151323 71 293 7.0 15.0 0.00 0.05 0.05 79 1014.7
20260904150324 70 246 6.0 14.0 0.00 0.05 0.05 79 1014.5
20260904145323 70 196 7.0 15.0 0.00 0.05 0.05 78 1014.4
20260904144322 70 240 7.0 15.0 0.00 0.05 0.05 79 1014.6
20260904143328 70 213 8.0 18.0 0.00 0.05 0.05 79 1014.6
20260904142331 70 274 4.0 13.0 0.00 0.05 0.05 83 1014.4
20260904141323 69 245 7.0 13.0 0.00 0.05 0.05 83 1014.4
20260904140321 69 290 6.0 14.0 0.00 0.05 0.05 86 1014.3
20260904135314 69 233 6.0 16.0 0.00 0.05 0.05 88 1014.2
20260904134321 69 253 6.0 13.0 0.05 0.05 0.05 88 1014.2
20260904133323 69 252 6.0 14.0 0.05 0.05 0.05 89 1014.0
20260904132332 69 254 7.0 14.0 0.05 0.05 0.05 89 1013.7
20260904132259 68 262 7.0 16.0 0.05 0.05 0.05 91 1013.7
20260904130316 67 282 8.0 18.0 0.05 0.05 0.05 91 1013.9
20260904125312 67 320 10.0 24.0 0.05 0.00 0.05 88 1013.9
20260904124310 70 304 8.0 19.0 0.00 0.00 0.00 88 1013.6
20260904123314 71 248 9.0 25.0 0.00 0.00 0.00 86 1013.5
20260904122316 71 194 7.0 20.0 0.00 0.00 0.00 85 1013.5
20260904121319 71 254 11.0 24.0 0.00 0.00 0.00 84 1013.5
20260904120325 72 201 9.0 21.0 0.00 0.00 0.00 82 1013.4
20260904115320 72 244 10.0 22.0 0.00 0.00 0.00 82 1013.3
20260904114317 72 227 12.0 27.0 0.00 0.00 0.00 82 1013.3
20260904113317 72 257 11.0 23.0 0.00 0.00 0.00 81 1013.5
20260904112310 72 265 13.0 29.0 0.00 0.00 0.00 80 1013.1
20260904111312 73 265 12.0 28.0 0.00 0.00 0.00 80 1013.0
20260904110310 73 236 11.0 23.0 0.00 0.00 0.00 80 1013.0
20260904105312 73 176 10.0 25.0 0.00 0.00 0.00 80 1013.1
20260904104311 73 234 10.0 28.0 0.00 0.00 0.00 81 1013.0
20260904103310 73 275 9.0 19.0 0.00 0.00 0.00 81 1013.1
20260904102312 73 232 9.0 23.0 0.00 0.00 0.00 81 1013.2
20260904101311 72 248 11.0 23.0 0.00 0.00 0.00 82 1013.2
20260904100309 71 192 8.0 19.0 0.00 0.00 0.00 84 1013.1
20260904095309 72 284 9.0 22.0 0.00 0.00 0.00 84 1013.3
20260904095240 72 290 10.0 25.0 0.00 0.00 0.00 83 1013.1
20260904093316 72 246 9.0 20.0 0.00 0.00 0.00 85 1013.2
20260904092315 71 240 9.0 18.0 0.00 0.00 0.00 86 1013.3
20260904092243 70 236 8.0 16.0 0.00 0.00 0.00 89 1013.0
20260904092227 71 182 10.0 25.0 0.00 0.00 0.00 87 1013.1
20260904085314 70 190 7.0 17.0 0.00 0.00 0.00 91 1012.9
20260904084311 70 236 6.0 14.0 0.00 0.00 0.00 92 1012.8
20260904083316 69 225 6.0 14.0 0.00 0.00 0.00 93 1012.9
20260904082311 69 230 6.0 15.0 0.00 0.00 0.00 93 1013.0
20260904081310 69 241 6.0 14.0 0.00 0.00 0.00 93 1013.2
20260904080311 69 268 7.0 17.0 0.00 0.00 0.00 91 1013.4
20260904075312 69 240 7.0 15.0 0.00 0.00 0.00 90 1013.3
20260904074304 69 242 7.0 18.0 0.00 0.00 0.00 89 1013.3
20260904073310 69 209 8.0 16.0 0.00 0.00 0.00 89 1013.3
20260904072306 69 262 8.0 18.0 0.00 0.00 0.00 90 1013.3
20260904071305 69 206 7.0 19.0 0.00 0.00 0.00 91 1013.3
20260904070307 69 220 7.0 22.0 0.00 0.00 0.00 93 1013.2
20260904065306 68 202 5.0 13.0 0.00 0.00 0.00 93 1013.3
20260904065204 68 180 6.0 14.0 0.00 0.00 0.00 92 1013.3
20260904063305 68 177 4.0 12.0 0.00 0.00 0.00 92 1013.1
20260904062259 68 235 6.0 16.0 0.00 0.00 0.00 93 1013.3
20260904061258 68 220 6.0 15.0 0.00 0.00 0.00 93 1013.4
20260904060256 68 214 7.0 17.0 0.00 0.00 0.00 93 1013.4
20260904055255 68 184 6.0 16.0 0.00 0.00 0.00 93 1013.5
20260904054254 68 178 6.0 17.0 0.00 0.00 0.00 93 1013.6
20260904053253 68 234 5.0 21.0 0.00 0.00 0.00 92 1013.6
20260904052259 68 225 5.0 14.0 0.00 0.00 0.00 91 1013.8
20260904051306 68 161 5.0 14.0 0.00 0.00 0.00 91 1013.8
20260904050257 68 146 5.0 13.0 0.00 0.00 0.00 91 1013.9
20260904045254 68 236 5.0 18.0 0.00 0.00 0.00 91 1014.1
20260904044254 68 246 5.0 17.0 0.00 0.00 0.00 91 1014.3
20260904044213 68 180 6.0 16.0 0.00 0.00 0.00 90 1014.2
20260904042251 68 215 5.0 15.0 0.00 0.00 0.00 90 1014.2
20260904042153 68 191 5.0 12.0 0.00 0.00 0.00 90 1014.3
20260904041147 68 227 5.0 19.0 0.00 0.00 0.00 90 1014.5
20260904035252 68 213 6.0 14.0 0.00 0.00 0.00 91 1014.6
20260904034251 68 227 6.0 17.0 0.00 0.00 0.00 91 1014.6
20260904033252 68 178 6.0 16.0 0.00 0.00 0.00 91 1014.8
20260904033241 68 228 6.0 14.0 0.00 0.00 0.00 91 1014.9
20260904031437 68 187 5.0 16.0 0.00 0.00 0.00 91 1015.0
20260904031255 68 211 5.0 11.0 0.00 0.00 0.00 91 1014.9
20260904025252 68 184 7.0 18.0 0.00 0.00 0.00 91 1015.1
20260904024252 68 196 5.0 15.0 0.00 0.00 0.00 91 1015.2
20260904023250 68 245 5.0 13.0 0.00 0.00 0.00 91 1015.1
20260904022246 68 219 5.0 15.0 0.00 0.00 0.00 91 1015.1
20260904021253 68 242 7.0 15.0 0.00 0.00 0.00 91 1015.1
20260904020247 68 237 6.0 16.0 0.00 0.00 0.00 91 1015.3
20260904015245 68 250 6.0 14.0 0.00 0.00 0.00 90 1015.7
20260904014245 68 177 5.0 15.0 0.00 0.00 0.00 90 1015.7
20260904014225 68 169 3.0 11.0 0.00 0.00 0.00 89 1015.8
20260904012250 68 142 4.0 13.0 0.00 0.00 0.00 89 1015.9
20260904012207 69 194 6.0 15.0 0.00 0.00 0.00 89 1016.1
20260904010247 69 260 6.0 16.0 0.00 0.00 0.00 89 1016.2
20260904005245 69 226 6.0 15.0 0.00 0.00 0.00 89 1016.3
20260904004242 69 196 5.0 11.0 0.00 0.00 0.00 89 1016.5
20260904003247 69 189 5.0 14.0 0.00 0.00 0.00 89 1016.5
20260904003204 69 211 6.0 15.0 0.00 0.00 0.00 89 1016.6
20260904001300 69 272 5.0 12.0 0.00 0.00 0.00 90 1016.7
20260904001237 69 232 6.0 18.0 0.00 0.00 0.00 89 1016.7
20260903235246 69 220 6.0 14.0 0.00 0.00 0.00 90 1016.7
20260903234239 69 270 6.0 17.0 0.00 0.00 0.00 90 1016.8
20260903233238 69 261 6.0 14.0 0.00 0.00 0.00 90 1016.8
20260903232238 69 232 5.0 12.0 0.00 0.00 0.00 90 1016.9
20260903232152 69 182 5.0 15.0 0.00 0.00 0.00 90 1016.7
20260903230232 69 189 5.0 16.0 0.00 0.00 0.00 90 1017.0